Zurück zum Katalog

COSMOS 2491 DEB

AktivPO
NORAD 45130·DEBRIS·🇷🇺 Russia

Gestartet Dec 25, 2013 von Plesetsk Cosmodrome

Loading…

Nächste Überflüge (nächste 24 Stunden)

TLE

VeraltetSource: Space-Track

Epoche: Aug 23, 2026, 18:50 UTC

1 45130U 13076AC  26235.78535182  .00002100  00000-0  97154-2 0  9998
2 45130  82.4478  57.6162 0158957 317.1261  41.7530 12.72241888303280

Verfolge COSMOS 2491 DEB in Echtzeit mit AllMySat

Download on the App Store